GW4085 Weather Reports


Display with metric or nautical units.
time (UTC)temp
F
wind
direction
speed
MPH
gust
MPH
rain 1hr
in
rain 24hr
in
rain mn
in
humidity
%
barometer
mb
20260507012419 55 29 2.0 5.0 0.00 0.00 0.00 55 1017.5
20260507011911 55 149 0.0 1.0 0.00 0.00 0.00 56 1017.3
20260507011408 56 141 0.0 2.0 0.00 0.00 0.00 56 1017.4
20260507010907 56 30 2.0 3.0 0.00 0.00 0.00 54 1017.3
20260507010402 56 138 0.0 2.0 0.00 0.00 0.00 55 1017.1
20260507005900 56 156 1.0 1.0 0.00 0.00 0.00 54 1017.1
20260507005356 57 124 1.0 1.0 0.00 0.00 0.00 54 1017.3
20260507004853 57 27 2.0 5.0 0.00 0.00 0.00 54 1016.8
20260507004350 57 80 1.0 3.0 0.00 0.00 0.00 53 1017.0
20260507003850 57 51 2.0 3.0 0.00 0.00 0.00 52 1017.0
20260507003343 58 21 3.0 3.0 0.00 0.00 0.00 51 1016.8
20260507002838 58 70 2.0 3.0 0.00 0.00 0.00 51 1016.8
20260507002335 58 51 1.0 3.0 0.00 0.00 0.00 50 1016.8
20260507001832 58 52 2.0 7.0 0.00 0.00 0.00 50 1016.7
20260507001329 59 144 2.0 3.0 0.00 0.00 0.00 49 1016.5
20260507000825 59 115 0.0 1.0 0.00 0.00 0.00 51 1016.7
20260507000321 59 347 2.0 6.0 0.00 0.00 0.00 50 1016.6
20260506235818 59 357 3.0 7.0 0.00 0.00 0.00 51 1016.6
20260506235314 59 4 3.0 5.0 0.00 0.00 0.00 50 1016.4
20260506234810 60 342 1.0 5.0 0.00 0.00 0.00 50 1016.3
20260506234308 60 66 1.0 5.0 0.00 0.00 0.00 49 1015.9
20260506233806 61 7 2.0 7.0 0.00 0.00 0.00 47 1015.9
20260506233256 60 322 3.0 6.0 0.00 0.00 0.00 46 1016.0
20260506232753 60 8 2.0 6.0 0.00 0.00 0.00 46 1015.9
20260506232248 60 28 4.0 6.0 0.00 0.00 0.00 45 1015.8
20260506231745 60 39 1.0 5.0 0.00 0.00 0.00 45 1016.1
20260506231243 60 338 2.0 6.0 0.00 0.00 0.00 44 1016.0
20260506230739 61 303 2.0 7.0 0.00 0.00 0.00 44 1016.2
20260506230236 61 107 0.0 2.0 0.00 0.00 0.00 48 1016.2
20260506225733 60 46 1.0 5.0 0.00 0.00 0.00 47 1016.1
20260506225230 61 3 3.0 6.0 0.00 0.00 0.00 46 1016.1
20260506224726 61 163 3.0 5.0 0.00 0.00 0.00 46 1015.9
20260506224224 62 348 3.0 6.0 0.00 0.00 0.00 46 1016.0
20260506223720 62 345 1.0 3.0 0.00 0.00 0.00 44 1016.0
20260506223215 62 352 2.0 5.0 0.00 0.00 0.00 46 1015.9
20260506222713 62 2 3.0 7.0 0.00 0.00 0.00 46 1015.9
20260506222208 62 15 3.0 3.0 0.00 0.00 0.00 46 1015.8
20260506221707 62 354 1.0 5.0 0.00 0.00 0.00 46 1016.0
20260506221204 62 18 5.0 8.0 0.00 0.00 0.00 45 1015.8
20260506220701 62 335 2.0 5.0 0.00 0.00 0.00 44 1015.8
20260506220156 62 8 2.0 3.0 0.00 0.00 0.00 47 1015.8
20260506215653 62 359 4.0 5.0 0.00 0.00 0.00 47 1015.8
20260506215148 62 69 2.0 3.0 0.00 0.00 0.00 47 1016.1
20260506214645 62 354 3.0 7.0 0.00 0.00 0.00 45 1015.9
20260506214143 62 319 3.0 6.0 0.00 0.00 0.00 46 1015.9
20260506213641 62 350 2.0 5.0 0.00 0.00 0.00 46 1015.8
20260506213138 63 10 5.0 6.0 0.00 0.00 0.00 45 1016.0
20260506212635 62 89 2.0 6.0 0.00 0.00 0.00 45 1016.0
20260506212130 61 208 4.0 5.0 0.00 0.00 0.00 46 1016.3
20260506211626 62 319 3.0 6.0 0.00 0.00 0.00 45 1016.4
20260506211123 61 212 1.0 3.0 0.00 0.00 0.00 47 1016.5
20260506210620 62 334 1.0 5.0 0.00 0.00 0.00 48 1016.4
20260506210116 62 8 3.0 5.0 0.00 0.00 0.00 47 1016.5
20260506205613 61 267 1.0 3.0 0.00 0.00 0.00 47 1016.4
20260506205108 62 18 2.0 6.0 0.00 0.00 0.00 49 1016.4
20260506204606 63 73 0.0 3.0 0.00 0.00 0.00 52 1016.5
20260506204103 62 210 2.0 2.0 0.00 0.00 0.00 47 1016.3
20260506203601 62 317 5.0 6.0 0.00 0.00 0.00 47 1016.5
20260506203057 62 21 5.0 7.0 0.00 0.00 0.00 49 1016.3
20260506202555 63 93 3.0 6.0 0.00 0.00 0.00 48 1016.7
20260506202051 63 323 4.0 6.0 0.00 0.00 0.00 49 1016.7
20260506201549 62 341 1.0 5.0 0.00 0.00 0.00 47 1016.5
20260506201045 62 3 3.0 5.0 0.00 0.00 0.00 50 1016.8
20260506200541 63 357 5.0 7.0 0.00 0.00 0.00 49 1016.8
20260506200038 61 223 2.0 2.0 0.00 0.00 0.00 49 1016.8
20260506195535 62 341 3.0 7.0 0.00 0.00 0.00 48 1016.8
20260506195032 62 58 3.0 5.0 0.00 0.00 0.00 47 1017.0
20260506194529 62 189 1.0 5.0 0.00 0.00 0.00 51 1017.0
20260506194026 63 289 3.0 7.0 0.00 0.00 0.00 48 1016.8
20260506193523 62 352 0.0 2.0 0.00 0.00 0.00 51 1017.0
20260506193020 62 8 4.0 7.0 0.00 0.00 0.00 52 1017.0
20260506192517 61 229 0.0 3.0 0.00 0.00 0.00 53 1017.3
20260506192013 60 149 2.0 3.0 0.00 0.00 0.00 53 1017.7
20260506191510 61 347 1.0 5.0 0.00 0.00 0.00 54 1017.5
20260506191006 60 185 0.0 3.0 0.00 0.00 0.00 55 1017.6
20260506190503 61 304 1.0 5.0 0.00 0.00 0.00 53 1017.5
20260506185959 61 333 4.0 5.0 0.00 0.00 0.00 53 1017.9
20260506185457 60 332 1.0 2.0 0.00 0.00 0.00 54 1017.9
20260506184953 59 31 3.0 5.0 0.00 0.00 0.00 56 1017.7
20260506184451 60 185 1.0 5.0 0.00 0.00 0.00 60 1017.9
20260506183948 61 233 1.0 2.0 0.00 0.00 0.00 58 1018.1
20260506183443 61 192 0.0 1.0 0.00 0.00 0.00 62 1018.4
20260506182941 59 171 1.0 2.0 0.00 0.00 0.00 62 1018.2
20260506182438 58 66 0.0 1.0 0.00 0.00 0.00 59 1018.7
20260506181935 59 3 4.0 5.0 0.00 0.00 0.00 58 1018.5
20260506181433 59 184 0.0 3.0 0.00 0.00 0.00 61 1018.6
20260506180929 58 13 1.0 5.0 0.00 0.00 0.00 61 1018.7
20260506180426 59 337 2.0 3.0 0.00 0.00 0.00 61 1018.6
20260506175923 59 183 0.0 1.0 0.00 0.00 0.00 66 1018.4
20260506175420 58 324 1.0 5.0 0.00 0.00 0.00 63 1018.2
20260506174916 58 342 2.0 7.0 0.00 0.00 0.00 63 1018.3
20260506174414 59 300 3.0 3.0 0.00 0.00 0.00 62 1018.3
20260506173911 58 309 2.0 3.0 0.00 0.00 0.00 61 1018.5
20260506173408 58 52 0.0 5.0 0.00 0.00 0.00 60 1018.7
20260506172859 58 117 0.0 2.0 0.00 0.00 0.00 63 1018.8
20260506172355 58 91 0.0 5.0 0.00 0.00 0.00 62 1018.7
20260506171853 57 122 1.0 3.0 0.00 0.00 0.00 64 1018.5
20260506171350 57 18 1.0 2.0 0.00 0.00 0.00 64 1018.6
20260506170848 57 11 1.0 2.0 0.00 0.00 0.00 63 1018.5
20260506170344 58 169 2.0 5.0 0.00 0.00 0.00 64 1018.1
20260506165843 58 1 3.0 5.0 0.00 0.00 0.00 63 1018.2
20260506165340 58 340 3.0 5.0 0.00 0.00 0.00 63 1017.9
20260506164836 56 186 1.0 3.0 0.00 0.00 0.00 67 1018.1
20260506164333 57 59 2.0 5.0 0.00 0.00 0.00 64 1018.0
20260506163825 56 136 1.0 8.0 0.00 0.00 0.00 66 1017.7
20260506163325 56 26 1.0 3.0 0.00 0.00 0.00 65 1017.8
20260506162821 57 352 3.0 3.0 0.00 0.00 0.00 62 1017.9
20260506162319 58 173 2.0 2.0 0.00 0.00 0.00 67 1017.9
20260506161816 58 173 0.0 1.0 0.00 0.00 0.00 68 1017.9
20260506161313 57 186 2.0 3.0 0.00 0.00 0.00 66 1018.0
20260506160806 56 82 3.0 5.0 0.00 0.00 0.00 63 1018.0
20260506160302 56 269 2.0 3.0 0.00 0.00 0.00 66 1017.9
20260506155801 55 182 1.0 3.0 0.00 0.00 0.00 70 1017.9
20260506155257 54 83 2.0 2.0 0.00 0.00 0.00 68 1017.6
20260506153409 54 252 3.0 6.0 0.00 0.00 0.00 67 1017.7
20260506152907 54 134 1.0 3.0 0.00 0.00 0.00 72 1017.7
20260506152403 53 225 1.0 2.0 0.00 0.00 0.00 71 1017.5
20260506151902 53 343 3.0 3.0 0.00 0.00 0.00 71 1017.5
20260506151358 53 4 1.0 1.0 0.00 0.00 0.00 72 1017.6
20260506150856 52 161 0.0 1.0 0.00 0.00 0.00 75 1017.9
20260506150352 51 308 3.0 3.0 0.00 0.00 0.00 75 1018.0
20260506145849 51 203 1.0 3.0 0.00 0.00 0.00 74 1017.6
20260506145345 50 8 1.0 6.0 0.00 0.00 0.00 75 1017.9
20260506144843 50 325 3.0 6.0 0.00 0.00 0.00 75 1018.0
20260506144339 50 322 2.0 6.0 0.00 0.00 0.00 76 1017.9
20260506143838 50 68 1.0 2.0 0.00 0.00 0.00 78 1017.6
20260506143335 50 55 2.0 5.0 0.00 0.00 0.00 78 1017.6
20260506142833 49 47 2.0 3.0 0.00 0.00 0.00 79 1017.6
20260506142331 49 38 3.0 5.0 0.00 0.00 0.00 80 1017.4
20260506141829 48 17 1.0 2.0 0.00 0.00 0.00 82 1017.6
20260506141327 48 335 2.0 3.0 0.00 0.00 0.00 83 1017.7
20260506140824 48 11 2.0 3.0 0.00 0.00 0.00 83 1017.8
20260506140321 48 11 2.0 5.0 0.00 0.00 0.00 82 1017.6
20260506135818 48 144 0.0 2.0 0.00 0.00 0.00 85 1017.6
20260506135315 47 353 2.0 3.0 0.00 0.00 0.00 85 1017.4
20260506134811 47 150 0.0 3.0 0.00 0.00 0.00 86 1017.4
20260506134308 47 104 0.0 3.0 0.00 0.00 0.00 85 1017.6
20260506133805 47 170 2.0 3.0 0.00 0.00 0.00 86 1017.4
20260506133301 47 298 1.0 5.0 0.00 0.00 0.00 87 1017.4
20260506132758 46 14 3.0 3.0 0.00 0.00 0.00 89 1016.8
20260506132255 46 101 1.0 3.0 0.00 0.00 0.00 91 1017.0
20260506131753 46 12 2.0 3.0 0.00 0.00 0.00 93 1017.3
20260506131249 46 325 3.0 6.0 0.00 0.00 0.00 93 1017.0
20260506130746 46 339 3.0 5.0 0.00 0.00 0.00 94 1017.4
20260506130243 46 132 1.0 3.0 0.00 0.00 0.00 94 1017.4
20260506125741 46 334 2.0 5.0 0.00 0.00 0.00 94 1017.5
20260506125238 45 30 1.0 2.0 0.00 0.00 0.00 95 1017.5
20260506124737 45 118 1.0 2.0 0.00 0.00 0.00 95 1017.4
20260506124234 45 33 1.0 2.0 0.00 0.00 0.00 95 1017.7
20260506123731 45 36 2.0 7.0 0.00 0.00 0.00 95 1017.8
20260506123230 45 102 2.0 3.0 0.00 0.00 0.00 95 1017.7
20260506122726 45 121 1.0 3.0 0.00 0.00 0.00 95 1017.9
20260506122224 45 120 0.0 1.0 0.00 0.00 0.00 95 1017.6
20260506121722 45 94 1.0 2.0 0.00 0.00 0.00 95 1017.7
20260506121218 45 154 0.0 2.0 0.00 0.00 0.00 95 1017.0
20260506120715 45 139 0.0 2.0 0.00 0.00 0.00 95 1017.3
20260506120213 44 16 1.0 2.0 0.00 0.00 0.00 95 1017.1
20260506115711 45 123 1.0 1.0 0.00 0.00 0.00 96 1017.1
20260506115209 44 86 0.0 1.0 0.00 0.00 0.00 96 1016.9
20260506114706 45 169 0.0 2.0 0.00 0.00 0.00 96 1017.0
20260506114204 44 115 0.0 5.0 0.00 0.00 0.00 97 1017.0
20260506113703 44 30 4.0 6.0 0.00 0.00 0.00 97 1016.8
20260506113159 44 60 2.0 5.0 0.00 0.00 0.00 97 1016.6
20260506112655 44 53 1.0 3.0 0.00 0.00 0.00 97 1016.2
20260506112153 44 23 2.0 2.0 0.00 0.00 0.00 97 1016.4
20260506111650 44 147 1.0 2.0 0.00 0.00 0.00 97 1016.2
20260506111148 44 354 1.0 2.0 0.00 0.00 0.00 97 1016.2
20260506110645 44 62 1.0 2.0 0.00 0.00 0.00 97 1016.0
20260506110143 44 140 1.0 1.0 0.00 0.00 0.00 97 1016.1
20260506105639 44 86 1.0 1.0 0.00 0.00 0.00 97 1015.8
20260506105136 44 50 1.0 3.0 0.00 0.00 0.00 97 1015.6
20260506104634 44 42 2.0 3.0 0.00 0.00 0.00 97 1015.6
20260506104131 45 20 2.0 2.0 0.00 0.00 0.00 96 1015.5
20260506103628 44 146 0.0 2.0 0.00 0.00 0.00 96 1015.5
20260506103125 44 139 0.0 3.0 0.00 0.00 0.00 96 1015.6
20260506102624 44 23 2.0 3.0 0.00 0.00 0.00 96 1015.5
20260506102121 44 119 0.0 2.0 0.00 0.00 0.00 96 1015.6
20260506101617 44 106 0.0 2.0 0.00 0.00 0.00 96 1015.3
20260506101114 44 14 2.0 2.0 0.00 0.00 0.00 95 1015.5
20260506100613 45 65 1.0 2.0 0.00 0.00 0.00 95 1015.6
20260506100110 45 11 2.0 2.0 0.00 0.00 0.00 95 1015.2
20260506095609 45 143 0.0 1.0 0.00 0.00 0.00 95 1015.1
20260506095105 45 62 1.0 2.0 0.00 0.00 0.00 95 1015.1
20260506094603 45 61 2.0 3.0 0.00 0.00 0.00 94 1015.0
20260506094100 45 141 0.0 1.0 0.00 0.00 0.00 94 1015.3
20260506093558 45 125 1.0 2.0 0.00 0.00 0.00 94 1014.9
20260506093055 45 129 0.0 1.0 0.00 0.00 0.00 93 1014.4
20260506092553 45 148 0.0 1.0 0.00 0.00 0.00 93 1014.4
20260506092050 45 47 1.0 2.0 0.00 0.00 0.00 93 1014.4
20260506091548 45 154 0.0 1.0 0.00 0.00 0.00 93 1014.9
20260506091045 45 145 0.0 2.0 0.00 0.00 0.00 92 1014.9
20260506090543 45 218 1.0 2.0 0.00 0.00 0.00 92 1015.2
20260506090039 45 59 1.0 2.0 0.00 0.00 0.00 91 1014.2
20260506085536 45 128 0.0 3.0 0.00 0.00 0.00 91 1014.1
20260506085032 45 130 1.0 2.0 0.00 0.00 0.00 91 1014.0
20260506084529 45 15 1.0 2.0 0.00 0.00 0.00 91 1014.0
20260506084025 45 131 0.0 1.0 0.00 0.00 0.00 92 1013.8
20260506083523 45 174 0.0 1.0 0.00 0.00 0.00 92 1013.5
20260506083020 45 352 2.0 3.0 0.00 0.00 0.00 92 1013.2
20260506082517 44 101 1.0 6.0 0.00 0.00 0.00 92 1012.9
20260506082012 44 4 3.0 5.0 0.00 0.00 0.00 92 1012.6
20260506081511 44 14 1.0 2.0 0.00 0.00 0.00 93 1013.0
20260506081008 44 80 1.0 2.0 0.00 0.00 0.00 93 1012.7
20260506080505 44 326 2.0 3.0 0.00 0.00 0.00 93 1013.0
20260506073449 44 7 2.0 2.0 0.00 0.00 0.00 93 1013.1
20260506072946 44 350 0.0 6.0 0.00 0.00 0.00 93 1013.3
20260506072443 44 146 1.0 3.0 0.00 0.00 0.00 93 1013.5
20260506071941 44 343 2.0 3.0 0.00 0.00 0.00 93 1013.6
20260506071439 44 126 0.0 3.0 0.00 0.00 0.00 93 1014.0
20260506070935 44 64 1.0 3.0 0.00 0.00 0.00 93 1013.9
20260506070432 44 77 1.0 2.0 0.00 0.00 0.00 93 1014.0
20260506062410 44 142 1.0 1.0 0.00 0.00 0.00 94 1014.3
20260506061906 44 93 1.0 1.0 0.00 0.00 0.00 94 1014.3
20260506061403 44 81 1.0 2.0 0.00 0.00 0.00 94 1013.9
20260506060900 44 322 2.0 2.0 0.00 0.00 0.00 93 1013.6
20260506060359 44 58 1.0 1.0 0.00 0.00 0.00 94 1014.1
20260506051330 44 9 2.0 2.0 0.00 0.00 0.00 93 1013.8
20260506050828 44 122 0.0 1.0 0.00 0.00 0.00 93 1013.7
20260506050325 44 349 1.0 3.0 0.00 0.00 0.00 93 1013.3
20260506044816 44 356 2.0 2.0 0.00 0.22 0.22 95 1013.4
20260506044314 45 331 0.0 0.0 0.00 0.22 0.22 96 1013.2
20260506043810 45 15 0.0 0.0 0.00 0.22 0.22 96 1013.1
20260506043307 45 350 0.0 2.0 0.00 0.22 0.22 96 1012.9
20260506042806 45 337 1.0 7.0 0.00 0.22 0.22 97 1012.8
20260506042305 45 353 0.0 3.0 0.00 0.22 0.22 97 1012.8
20260506041802 45 317 0.0 0.0 0.00 0.22 0.22 98 1012.8
20260506041259 45 36 0.0 5.0 0.00 0.22 0.22 97 1012.8
20260506040756 45 20 0.0 3.0 0.00 0.22 0.22 97 1012.9
20260506040254 45 357 0.0 0.0 0.00 0.22 0.22 97 1012.8
20260506035750 45 84 0.0 0.0 0.00 0.22 0.22 97 1012.8
20260506035247 45 13 0.0 0.0 0.00 0.22 0.22 97 1012.7
20260506034744 45 340 0.0 0.0 0.00 0.22 0.22 97 1013.1
20260506034241 45 36 2.0 5.0 0.00 0.22 0.22 97 1012.7
20260506033738 45 347 0.0 1.0 0.00 0.22 0.22 97 1012.7
20260506033235 45 16 3.0 3.0 0.00 0.22 0.22 97 1012.8
20260506032727 45 8 3.0 3.0 0.00 0.22 0.22 97 1013.2
20260506032224 45 31 1.0 3.0 0.00 0.22 0.22 97 1013.1
20260506031720 45 300 3.0 5.0 0.00 0.22 0.22 97 1012.8
20260506031218 45 80 1.0 2.0 0.00 0.22 0.22 97 1012.6
20260506030716 45 58 1.0 5.0 0.00 0.22 0.22 97 1012.4
20260506030213 45 56 2.0 5.0 0.00 0.22 0.22 97 1012.2
20260506025710 45 327 1.0 1.0 0.00 0.22 0.22 97 1012.3
20260506025206 45 17 1.0 3.0 0.00 0.22 0.22 97 1012.3
20260506024703 45 7 1.0 2.0 0.00 0.22 0.22 97 1012.2
20260506024159 45 4 1.0 5.0 0.00 0.22 0.22 97 1012.3
20260506023656 45 149 1.0 1.0 0.00 0.22 0.22 97 1012.2
20260506023154 45 2 2.0 2.0 0.00 0.22 0.22 97 1012.1
20260506022650 45 122 1.0 6.0 0.00 0.22 0.22 97 1012.0
20260506022148 45 18 2.0 3.0 0.00 0.22 0.22 97 1011.6
20260506021645 45 329 2.0 3.0 0.00 0.22 0.22 97 1011.6
20260506021142 45 294 1.0 3.0 0.00 0.22 0.22 97 1011.3
20260506020639 45 301 2.0 3.0 0.00 0.22 0.22 97 1011.4
20260506020137 45 346 2.0 3.0 0.00 0.22 0.22 97 1011.6
20260506015634 45 342 2.0 3.0 0.00 0.22 0.22 97 1011.3
20260506015131 45 42 2.0 5.0 0.00 0.22 0.22 97 1011.3
20260506014629 45 121 1.0 3.0 0.00 0.22 0.22 97 1011.1
20260506014124 45 59 3.0 5.0 0.00 0.22 0.22 97 1011.1
20260506013622 45 25 1.0 3.0 0.00 0.22 0.22 97 1011.3
20260506013119 45 2 2.0 6.0 0.00 0.22 0.22 97 1011.2